www.pogodaiklimat.ru

Погода и климат >> Архив погоды >> Россия >> Якутия >> Депутатский


ПОГОДА в Депутатском

  • Прогноз погоды в Депутатском
  • Монитор погоды в Депутатском

АРХИВ ПОГОДЫ в Депутатском

Время (UTC), дата Ветер
(напр.,м/с)
 
Видим.   Явления Облачность Т
(С)
Тd
(С)
f
(%)
Тe
(С)
Тes
(С)
Комфортность P
(гПа)
Po
(гПа)
Тmin
(С)
Tmax
(С)
R
(мм)
R24
(мм)
S
(см)
03 16.05 В 3 20 км слаб. снег 10/6 630 м
[Sc As op]
-1.0 -4.9 75 -6 -5 1015.7 980.1
06 16.05 СВ 3 20 км слаб. снег 10/8 500 м
[Sc As op]
-2.7 -5.0 84 -8 -8 1016.9 981.1
09 16.05 В 4 10 км слаб. снег 10/8 600 м
[Sc As op]
-6.1 -6.9 94 -13 -13 1019.0 982.6 -0.6 1
12 16.05 В 4 20 км {снег} 10/5 600 м
[Sc Ac und]
-7.0 -9.5 82 -14 -14 1020.2 983.6
15 16.05 В 4 20 км 10/4 600 м
[Sc Ac und]
-8.3 -10.6 83 -15 -15 1021.0 984.3
18 16.05 В 3 20 км 10/4 600 м
[Sc Ac und]
-8.9 -10.9 85 -15 -15 1021.8 985.0
21 16.05 В 3 20 км слаб. снег 10/5 600 м
[Sc As op]
-8.0 -11.2 78 -14 -14 1021.7 985.0 -9.1 0.2 17
00 17.05 В 3 20 км слаб. ливневой дождь 10/8 700 м
[Cb cap As op]
-7.8 -11.4 75 -13 -13 1021.8 985.1
03 17.05 В 3 20 км {ливн. осадки} 10/10 720 м
[Cb cap]
-7.5 -12.4 68 -13 -13 1021.8 985.2
06 17.05 СВ 4 20 км {ливн. осадки} 10/10 720 м
[Cb cap]
-7.0 -12.2 66 -13 -13 1021.8 985.2
09 17.05 СВ 3 20 км 9/1 600 м
[Sc Ac trans]
-7.6 -13.1 65 -13 -12 1022.9 986.2 -6.7 0.2
12 17.05 СВ 3 20 км 8/0
[Ac trans]
-9.5 -13.0 76 -15 -15 1024.4 987.4
15 17.05 штиль 0 20 км 10/5 600 м
[Cb cap Ac und]
-11.5 -14.3 80 -12 -12 1025.5 988.3
18 17.05 С 3 20 км слаб. ливневой дождь 10/10 720 м
[Cb cap]
-11.0 -13.8 80 -17 -17 1026.4 989.0
21 17.05 З 2 20 км слаб. ливневой снег 10/10 630 м
[Cb cap]
-13.9 -19 -19 1026.8 989.4 -12.0 0.0 17
00 18.05 В 2 20 км слаб. ливневой снег 10/8 720 м
[Cb cap Ac und]
-8.9 -12.8 73 -13 -13 1026.2 989.1
03 18.05 В 1 20 км 10/8 750 м
[Cb cap Ac und]
-6.7 -12.3 64 -9 -8 1025.5 988.7
06 18.05 В 3 20 км 10/8 750 м
[Cb cap Ac und]
-6.5 -12.0 65 -12 -12 1024.8 988.3
09 18.05 СВ 4 20 км 10/9 720 м
[Cb cap Ac und]
-8.3 -13.0 69 -15 -15 1025.5 988.6 -6.2 0.0
12 18.05 СВ 4 20 км 10/10 700 м
[Cb cap]
-9.2 -12.6 76 -16 -16 1025.4 988.4
15 18.05 В 2 20 км 10/10 660 м
[Cb cap]
-10.2 -13.8 75 -15 -15 1024.8 987.7
18 18.05 В 3 20 км 10/10 660 м
[Cb cap]
-10.5 -14.1 75 -16 -16 1024.1 987.0
21 18.05 В 3 20 км слаб. ливневой снег 10/10 570 м
[Cb cap]
-10.0 -12.8 80 -16 -16 1023.0 985.9 -10.7 0.0 17
00 19.05 В 3 4000 м слаб. ливневой снег 10/10 600 м
[Cb cap]
-8.8 -13.2 70 -15 -15 1021.5 984.7
03 19.05 В 4 20 км слаб. ливневой снег 10/9 800 м
[Cb cap As op]
-8.1 -13.8 63 -15 -15 1020.4 983.7
06 19.05 В 2 20 км слаб. ливневой снег 10/8 900 м
[Cb cap As op]
-7.2 -12.5 66 -11 -11 1019.1 982.5
09 19.05 В 2 20 км слаб. ливневой снег 10/10 960 м
[Cb cap]
-7.6 -12.6 67 -12 -12 1019.1 982.5 -6.7 0.2
12 19.05 В 2 20 км {ливн. осадки} 10/10 800 м
[Cb cap]
-8.7 -13.0 71 -13 -13 1018.9 982.2
15 19.05 штиль 0 20 км 10/10 720 м
[Cb cap]
-9.6 -13.2 75 -10 -10 1018.2 981.5
18 19.05 В 3 20 км 10/8 720 м
[Cb cap Ac und]
-10.2 -13.8 75 -16 -16 1017.6 980.7
21 19.05 ЮВ 2 20 км в посл. час снег 9/3 600 м
[Sc Ac trans]
-9.1 -14.1 67 -13 -12 1016.9 980.2 -10.6 0.0 17
00 20.05 штиль 0 20 км слаб. ливневой снег 10/4 600 м
[Cb cap As op]
-6.5 -12.0 65 -7 -6 1016.0 979.7
03 20.05 ЮЗ 3 20 км {ливн. осадки} 3/3 600 м
[Sc]
-4.4 -11.9 56 -9 -4 1015.2 979.3
06 20.05 ЮЗ 3 20 км {ливн. осадки} 3/3 600 м
[Sc]
-2.7 -11.2 52 -7 -3 1014.7 979.0
09 20.05 Ю 2 20 км ясно -1.0 -10.6 48 -4 -2 1014.8 979.3 -0.4 0.0
12 20.05 штиль 0 20 км 1/0
[Ac trans]
-3.3 -10.2 59 -4 -4 1015.6 979.7
15 20.05 штиль 0 20 км 3/0
[Ac trans]
-7.0 -10.8 74 -8 -8 1016.4 980.0
18 20.05 штиль 0 20 км 6/0
[Ac trans Ci fib]
-9.2 -12.6 76 -10 -9 1017.7 981.0
21 20.05 СВ 3 20 км 5/1 600 м
[Sc Ci fib]
-4.6 -9.8 67 -10 -8 1017.7 981.7 -11.6 16
00 21.05 В 1 20 км 8/0
[Ac trans]
-0.9 -9.4 52 -2 +2 1017.3 981.7
03 21.05 ЮЗ 2 20 км 8/0
[Ac trans]
+2.3 -9.7 41 0 +5 1017.0 981.9
06 21.05 ЮЗ 2 20 км 8/0
[Ac trans]
+3.3 -10.0 37 +1 +5 1017.2 982.2
09 21.05 Ю 3 20 км ясно +4.5 -9.8 35 +2 +4 1017.5 982.5 +5.3
12 21.05 штиль 0 20 км ясно +2.5 -9.8 40 +2 +3 1017.9 982.7
15 21.05 В 2 20 км ясно 0.0 -6.7 61 -3 -3 1018.5 982.9
18 21.05 В 2 20 км ясно -3.4 -7.2 75 -7 -7 1018.9 982.9
21 21.05 В 2 20 км ясно +0.8 -6.9 56 -2 +1 1018.3 982.8 -4.6 14
00 22.05 В 2 20 км ясно +4.0 -4.7 53 +2 +10 опасность
простуды
1016.5 981.5
03 22.05 В 3 20 км ясно +5.9 -4.2 48 +3 +12 опасность
простуды
1014.3 979.6
06 22.05 В 3 20 км ясно +7.0 -3.0 49 +5 +10 1012.0 977.6
09 22.05 В 5 20 км ясно +7.0 -2.2 52 +3 +5 1010.1 975.8 +7.7
12 22.05 В 4 н/о н/о +6.3 -2.7 53 +3 +3 1007.5 973.2
15 22.05 В 6
{11}
н/о н/о +3.7 -2.9 62 -1 -1 1005.6 971.0
18 22.05 СВ 6
{10}
н/о н/о +2.7 -3.8 62 -3 -3 1003.9 969.4
21 22.05 В 5
{10}
н/о н/о +2.9 -3.4 63 -2 -2 1002.0 967.5 +2.0
00 23.05 В 2
{10}
20 км 9/6 1200 м
[Sc Ac und]
+3.5 -2.8 63 +1 +3 1000.3 965.9 -2.8 8

 

Местоположение метеостанции Депутатский (Якутия, Россия): широта 69.38 долгота 139.80 высота над уровнем моря 284 м.

В архиве по умолчанию представлена погода в Депутатском за последнюю неделю. Архивные данные за месяц целиком и за предыдущие месяцы, начиная с января 2011 года, Вы можете получить, выбрав интересующий диапазон дат из раскрывающегося списка и нажав кнопку "Ввод!".


*Определитесь, кто Вы:
робот инопланетянин человек

Внимание! Время в таблицах - всемирное. Для получения местного времени необходимо прибавить поправку, которая равна 10 ч.

Смотрите также архив погоды в соседних городах и на ближайших метеорологических станциях:

Погода в Усть-Куйге (Якутия, Россия) (176 км)
Погода в Юбилейной (Якутия, Россия) (206 км)
Погода в Белой Горе (Якутия, Россия) (272 км)
Погода в Батагае (Якутия, Россия) (286 км)
Погода в Усть-Чарках (Якутия, Россия) (316 км)
Погода в Верхоянске (Якутия, Россия) (329 км)
Погода в Чокурдахе (Якутия, Россия) (334 км)
Погода в Усть-Моме (Якутия, Россия) (355 км)
Погода в Батагай-Алыте (Якутия, Россия) (421 км)
Погода на Мысе Кигилях (Якутия, Россия) (439 км)

Пояснения к столбцам:

Ветер - указаны скорость ветра в м/с - средняя за 10 мин, порывы в срок и между сроками (в фигурных скобках) и направление, откуда дует ветер: С - северный, СВ - северо-восточный, В - восточный, ЮВ - юго-восточный, Ю - южный, ЮЗ - юго-западный, З - западный, СЗ - северо-западный.
Видимость - горизонтальная дальность видимости в метрах или километрах. При видимости от 1 до 10 км при отсутствии осадков обычно наблюдается дымка, при ухудшении видимости до 1 км и менее - туман. В сухую погоду видимость может ухудшаться дымом, пылью или мглою.
Явления - указаны атмосферные явления, наблюдавшиеся в срок или в последний час перед сроком; фигурными скобками обозначены явления, наблюдавшиеся между сроками (за 1-3 часа до срока); квадратными скобками обозначены град или гололедные отложения с указанием их диаметра в мм.
Облачность - указаны через наклонную черту общая и нижняя облачность в баллах и высота нижней границы облаков в метрах; квадратными скобками обозначены формы облаков: Ci - перистые, Cs - перисто-слоистые, Cc - перисто-кучевые, Ac - высококучевые, As - высокослоистые, Sc - слоисто-кучевые, Ns - слоисто-дождевые, Cu - кучевые, Cb - кучево-дождевые. Подробнее классификацию облаков см. в Атласе облаков (PDF).
T - Температура воздуха - температура, измеренная на высоте 2 м над землей.
Td - Температура точки росы - температура, при понижении до которой содержащийся в воздухе водяной пар достигнет насыщения.
f - Относительная влажность воздуха - влажноcть воздуха, измеренная на высоте 2 м над землей.
Te - Эффективная температура - температура, которую ощущает одетый по сезону человек в тени. Характеристика душности погоды. При расчете учитывается влияние влажности воздуха и скорости ветра на теплоощущения человека.
Tes - Эффективная температура на солнце - температура, которую ощущает человек, с поправкой на солнечный нагрев. Характеристика знойности погоды. Зависит от высоты солнца над горизонтом, облачности и скорости ветра. Ночью, в пасмурную погоду, а также при ветре 12 м/с и более поправка равна нулю.
P - Атмосферное давление - приведенное к уровню моря атмосферное давление.
Po - Атмосферное давление - измеренное на уровне метеостанции атмосферное давление.
Tmin - Минимальная температура - минимум температуры воздуха на высоте 2 м над землей.
Tmax - Максимальная температура - максимум температуры воздуха на высоте 2 м над землей.
R - Количество осадков - Количество выпавших осадков за период времени, мм. При наведении курсора мыши на число - период времени, за который выпало указанное количество осадков.
R24 - Количество осадков - Количество выпавших осадков за 24 часа, мм.
S - Снежный покров - Высота снежного покрова, см. При наведении курсора мыши на число - состояние снежного покрова и степень покрытия местности в баллах.